timestamp,wind_dir_avg,wind_spd_avg,wind_spd_max_dir,wind_spd_gust,battery_voltage,lat,long
2022-11-20 00:04:00+00:00,260.0,9.67,263.0,11.36,12.41,47.59359,-54.27349
2022-11-20 00:14:00+00:00,269.0,10.47,264.0,11.97,12.41,47.59359,-54.27349
2022-11-20 00:24:00+00:00,271.0,10.27,273.0,11.64,12.41,47.59359,-54.27349
2022-11-20 00:34:00+00:00,263.0,9.66,257.0,11.4,12.41,47.59359,-54.27349
2022-11-20 00:44:00+00:00,269.0,9.15,273.0,10.87,12.41,47.59359,-54.27349
2022-11-20 00:54:00+00:00,275.0,9.48,273.0,11.12,12.41,47.59359,-54.27349
2022-11-20 01:04:00+00:00,294.0,9.65,290.0,11.23,12.41,47.59359,-54.27349
2022-11-20 01:14:01+00:00,284.0,9.43,283.0,11.28,12.41,47.59359,-54.27349
2022-11-20 01:24:01+00:00,289.0,10.32,285.0,12.1,12.41,47.59359,-54.27349
2022-11-20 01:34:01+00:00,294.0,9.93,289.0,11.68,12.41,47.59359,-54.27349
2022-11-20 01:44:01+00:00,289.0,9.38,289.0,11.68,12.41,47.59359,-54.27349
2022-11-20 01:54:01+00:00,288.0,9.43,291.0,11.34,12.41,47.59359,-54.27349
2022-11-20 02:04:01+00:00,289.0,9.37,291.0,10.92,12.41,47.59359,-54.27349
2022-11-20 02:14:01+00:00,287.0,9.17,281.0,10.99,12.41,47.59359,-54.27349
2022-11-20 02:24:01+00:00,291.0,8.93,288.0,11.11,12.41,47.59359,-54.27349
2022-11-20 02:34:01+00:00,275.0,8.25,271.0,10.48,12.41,47.59359,-54.27349
2022-11-20 02:44:01+00:00,292.0,8.9,284.0,11.03,12.41,47.59359,-54.27349
2022-11-20 02:54:01+00:00,271.0,8.45,273.0,10.67,12.41,47.59359,-54.27349
2022-11-20 03:04:01+00:00,278.0,9.2,282.0,10.68,12.41,47.59359,-54.27349
2022-11-20 03:14:00+00:00,276.0,9.25,283.0,10.81,12.33,47.59359,-54.27349
2022-11-20 03:24:00+00:00,284.0,9.02,281.0,11.26,12.33,47.59359,-54.27349
2022-11-20 03:34:00+00:00,283.0,9.02,298.0,11.31,12.33,47.59359,-54.27349
2022-11-20 03:44:00+00:00,278.0,9.55,277.0,12.08,12.33,47.59359,-54.27349
2022-11-20 03:54:00+00:00,274.0,8.58,266.0,10.48,12.33,47.59359,-54.27349
2022-11-20 04:04:00+00:00,278.0,8.56,284.0,10.89,12.33,47.59359,-54.27349
2022-11-20 04:14:01+00:00,279.0,8.7,280.0,10.8,12.33,47.59359,-54.27349
2022-11-20 04:24:01+00:00,286.0,9.03,286.0,11.06,12.33,47.59359,-54.27349
2022-11-20 04:34:01+00:00,290.0,9.0,287.0,10.94,12.33,47.59359,-54.27349
2022-11-20 04:44:01+00:00,283.0,8.79,283.0,10.83,12.33,47.59359,-54.27349
2022-11-20 04:54:01+00:00,289.0,8.06,286.0,10.67,12.33,47.59359,-54.27349
2022-11-20 05:04:01+00:00,278.0,9.38,280.0,10.64,12.33,47.59359,-54.27349
2022-11-20 05:14:00+00:00,279.0,9.34,279.0,10.87,12.33,47.59359,-54.27349
2022-11-20 05:24:00+00:00,275.0,8.7,279.0,10.15,12.33,47.59359,-54.27349
2022-11-20 05:34:00+00:00,279.0,9.89,282.0,10.75,12.33,47.59359,-54.27349
2022-11-20 05:44:00+00:00,289.0,9.09,286.0,11.17,12.33,47.59359,-54.27349
2022-11-20 05:54:00+00:00,284.0,9.29,294.0,11.27,12.33,47.59359,-54.27349
2022-11-20 06:04:00+00:00,292.0,8.42,288.0,10.52,12.33,47.59359,-54.27349
2022-11-20 06:14:00+00:00,277.0,9.51,278.0,10.28,12.25,47.59359,-54.27349
2022-11-20 06:24:00+00:00,284.0,8.29,285.0,10.21,12.25,47.59359,-54.27349
2022-11-20 06:34:00+00:00,282.0,8.83,283.0,10.54,12.25,47.59359,-54.27349
2022-11-20 06:44:00+00:00,283.0,5.61,278.0,9.37,12.25,47.59359,-54.27349
2022-11-20 06:54:00+00:00,275.0,6.03,267.0,9.45,12.25,47.59359,-54.27349
2022-11-20 07:04:00+00:00,275.0,9.85,277.0,10.55,12.25,47.59359,-54.27349
2022-11-20 07:14:00+00:00,279.0,9.79,275.0,10.66,12.25,47.59359,-54.27349
2022-11-20 07:24:00+00:00,279.0,9.76,284.0,10.92,12.25,47.59359,-54.27349
2022-11-20 07:34:00+00:00,281.0,8.78,282.0,10.69,12.25,47.59359,-54.27349
2022-11-20 07:44:00+00:00,280.0,9.9,282.0,10.71,12.25,47.59359,-54.27349
2022-11-20 07:54:00+00:00,290.0,6.95,286.0,10.18,12.25,47.59359,-54.27349
2022-11-20 08:04:00+00:00,280.0,7.97,282.0,10.21,12.25,47.59359,-54.27349
2022-11-20 08:14:00+00:00,292.0,5.05,285.0,8.97,12.25,47.59359,-54.27349
2022-11-20 08:24:00+00:00,292.0,5.4,284.0,9.05,12.25,47.59359,-54.27349
2022-11-20 08:34:00+00:00,296.0,4.37,304.0,5.17,12.25,47.59359,-54.27349
2022-11-20 08:44:00+00:00,304.0,3.42,302.0,4.38,12.25,47.59359,-54.27349
2022-11-20 08:54:00+00:00,308.0,3.31,312.0,4.78,12.25,47.59359,-54.27349
2022-11-20 09:04:00+00:00,283.0,3.48,282.0,4.12,12.25,47.59359,-54.27349
2022-11-20 09:14:00+00:00,287.0,3.89,289.0,4.36,12.17,47.59359,-54.27349
2022-11-20 09:24:00+00:00,288.0,3.49,278.0,4.09,12.17,47.59359,-54.27349
2022-11-20 09:34:00+00:00,308.0,2.16,295.0,3.33,12.17,47.59359,-54.27349
2022-11-20 09:44:00+00:00,19.0,0.94,59.0,2.61,12.17,47.59359,-54.27349
2022-11-20 09:54:00+00:00,264.0,0.41,269.0,0.99,12.17,47.59359,-54.27349
2022-11-20 10:04:00+00:00,271.0,2.57,264.0,3.32,12.17,47.59359,-54.27349
2022-11-20 10:14:00+00:00,65.0,1.63,50.0,2.41,12.17,47.59359,-54.27349
2022-11-20 10:24:00+00:00,22.0,2.2,36.0,3.17,12.17,47.59359,-54.27349
2022-11-20 10:34:00+00:00,7.0,1.38,57.0,2.73,12.17,47.59359,-54.27349
2022-11-20 10:44:00+00:00,59.0,1.85,64.0,2.67,12.17,47.59359,-54.27349
2022-11-20 10:54:00+00:00,345.0,1.97,342.0,2.55,12.17,47.59359,-54.27349
2022-11-20 11:04:00+00:00,14.0,1.81,52.0,2.61,12.17,47.59359,-54.27349
2022-11-20 11:14:00+00:00,29.0,0.59,32.0,1.02,12.73,47.59359,-54.27349
2022-11-20 11:24:00+00:00,341.0,0.85,344.0,1.6,12.73,47.59359,-54.27349
2022-11-20 11:34:00+00:00,64.0,0.72,70.0,1.42,12.73,47.59359,-54.27349
2022-11-20 11:44:00+00:00,136.0,0.74,108.0,1.06,12.73,47.59359,-54.27349
2022-11-20 11:54:00+00:00,268.0,1.94,276.0,2.33,12.73,47.59359,-54.27349
2022-11-20 12:04:00+00:00,238.0,1.72,238.0,2.33,12.73,47.59359,-54.27349
2022-11-20 12:14:00+00:00,230.0,1.36,117.0,3.36,13.37,47.59359,-54.27349
2022-11-20 12:24:00+00:00,227.0,1.82,232.0,2.92,13.37,47.59359,-54.27349
2022-11-20 12:34:00+00:00,223.0,1.35,228.0,2.42,13.37,47.59359,-54.27349
2022-11-20 12:44:00+00:00,220.0,1.51,225.0,2.39,13.37,47.59359,-54.27349
2022-11-20 12:54:00+00:00,149.0,0.89,107.0,3.58,13.37,47.59359,-54.27349
2022-11-20 13:04:00+00:00,151.0,1.35,124.0,3.2,13.37,47.59359,-54.27349
2022-11-20 13:14:00+00:00,168.0,1.52,135.0,3.49,14.4,47.59359,-54.27349
2022-11-20 13:24:00+00:00,167.0,2.13,139.0,2.97,14.4,47.59359,-54.27349
2022-11-20 13:34:00+00:00,129.0,2.45,126.0,3.12,14.4,47.59359,-54.27349
2022-11-20 13:44:00+00:00,125.0,2.39,126.0,3.36,14.4,47.59359,-54.27349
2022-11-20 13:54:00+00:00,159.0,3.03,148.0,3.74,14.4,47.59359,-54.27349
2022-11-20 14:04:00+00:00,173.0,5.2,176.0,6.05,14.4,47.59359,-54.27349
2022-11-20 14:14:00+00:00,152.0,4.65,160.0,5.57,14.48,47.59359,-54.27349
2022-11-20 14:24:00+00:00,147.0,4.29,147.0,5.93,14.48,47.59359,-54.27349
2022-11-20 14:34:00+00:00,161.0,4.48,156.0,5.03,14.48,47.59359,-54.27349
2022-11-20 14:44:00+00:00,173.0,5.34,173.0,5.79,14.48,47.59359,-54.27349
2022-11-20 14:54:00+00:00,170.0,4.62,164.0,5.59,14.48,47.59359,-54.27349
2022-11-20 15:04:00+00:00,174.0,6.34,175.0,7.65,14.48,47.59359,-54.27349
2022-11-20 15:14:00+00:00,176.0,8.0,185.0,9.32,13.6,47.59359,-54.27349
2022-11-20 15:24:00+00:00,171.0,6.67,164.0,7.35,13.6,47.59359,-54.27349
2022-11-20 15:34:00+00:00,162.0,8.52,160.0,9.61,13.6,47.59359,-54.27349
2022-11-20 15:44:00+00:00,161.0,7.73,159.0,8.88,13.6,47.59359,-54.27349
2022-11-20 15:54:00+00:00,154.0,8.16,158.0,9.18,13.6,47.59359,-54.27349
2022-11-20 16:04:00+00:00,164.0,7.16,157.0,8.9,13.6,47.59359,-54.27349
2022-11-20 16:14:00+00:00,165.0,8.08,167.0,8.95,13.68,47.59359,-54.27349
2022-11-20 16:24:00+00:00,166.0,7.83,162.0,8.74,13.68,47.59359,-54.27349
2022-11-20 16:34:00+00:00,166.0,6.44,163.0,7.77,13.68,47.59359,-54.27349
2022-11-20 16:44:00+00:00,174.0,10.39,174.0,11.71,13.68,47.59359,-54.27349
2022-11-20 16:54:00+00:00,179.0,9.59,173.0,10.86,13.68,47.59359,-54.27349
2022-11-20 17:04:00+00:00,151.0,9.14,150.0,10.08,13.68,47.59359,-54.27349
2022-11-20 17:14:01+00:00,172.0,9.8,177.0,10.66,13.68,47.59359,-54.27349
2022-11-20 17:24:01+00:00,174.0,9.08,175.0,10.49,13.68,47.59359,-54.27349
2022-11-20 17:34:01+00:00,167.0,9.95,175.0,11.08,13.68,47.59359,-54.27349
2022-11-20 17:44:01+00:00,167.0,9.2,162.0,10.94,13.68,47.59359,-54.27349
2022-11-20 17:54:01+00:00,165.0,9.88,170.0,11.69,13.68,47.59359,-54.27349
2022-11-20 18:04:01+00:00,155.0,9.65,153.0,10.95,13.68,47.59359,-54.27349
2022-11-20 18:14:01+00:00,157.0,10.51,150.0,12.73,12.81,47.59359,-54.27349
2022-11-20 18:24:01+00:00,159.0,11.41,150.0,12.58,12.81,47.59359,-54.27349
2022-11-20 18:34:01+00:00,159.0,11.09,164.0,13.23,12.81,47.59359,-54.27349
2022-11-20 18:44:01+00:00,163.0,12.31,157.0,14.3,12.81,47.59359,-54.27349
2022-11-20 18:54:01+00:00,173.0,10.18,172.0,11.58,12.81,47.59359,-54.27349
2022-11-20 19:04:01+00:00,166.0,10.44,171.0,12.31,12.81,47.59359,-54.27349
2022-11-20 19:14:01+00:00,171.0,11.42,170.0,14.09,12.49,47.59359,-54.27349
2022-11-20 19:24:01+00:00,162.0,8.97,160.0,10.59,12.49,47.59359,-54.27349
2022-11-20 19:34:01+00:00,156.0,7.38,164.0,9.22,12.49,47.59359,-54.27349
2022-11-20 19:44:01+00:00,145.0,9.49,141.0,10.52,12.49,47.59359,-54.27349
2022-11-20 19:54:01+00:00,162.0,9.95,167.0,11.22,12.49,47.59359,-54.27349
2022-11-20 20:04:01+00:00,147.0,9.05,150.0,11.57,12.49,47.59359,-54.27349
2022-11-20 20:14:00+00:00,147.0,8.96,143.0,10.87,12.49,47.59359,-54.27349
2022-11-20 20:24:00+00:00,140.0,6.28,142.0,8.26,12.49,47.59359,-54.27349
2022-11-20 20:34:00+00:00,141.0,6.97,143.0,8.11,12.49,47.59359,-54.27349
2022-11-20 20:44:00+00:00,135.0,5.45,143.0,6.9,12.49,47.59359,-54.27349
2022-11-20 20:54:00+00:00,124.0,6.87,118.0,8.78,12.49,47.59359,-54.27349
2022-11-20 21:04:00+00:00,123.0,5.99,119.0,7.31,12.49,47.59359,-54.27349
2022-11-20 21:14:00+00:00,129.0,6.34,137.0,7.57,12.41,47.59359,-54.27349
2022-11-20 21:24:00+00:00,143.0,10.92,145.0,13.49,12.41,47.59359,-54.27349
2022-11-20 21:34:00+00:00,142.0,9.13,142.0,10.6,12.41,47.59359,-54.27349
2022-11-20 21:44:00+00:00,146.0,8.19,149.0,9.1,12.41,47.59359,-54.27349
2022-11-20 21:54:00+00:00,157.0,9.13,155.0,10.55,12.41,47.59359,-54.27349
2022-11-20 22:04:00+00:00,147.0,9.59,146.0,11.79,12.41,47.59359,-54.27349
2022-11-20 22:14:01+00:00,131.0,7.36,140.0,10.55,12.41,47.59359,-54.27349
2022-11-20 22:24:01+00:00,119.0,6.24,120.0,8.06,12.41,47.59359,-54.27349
2022-11-20 22:34:01+00:00,120.0,6.84,123.0,7.82,12.41,47.59359,-54.27349
2022-11-20 22:44:01+00:00,113.0,7.77,112.0,10.93,12.41,47.59359,-54.27349
2022-11-20 22:54:01+00:00,97.0,4.25,112.0,7.14,12.41,47.59359,-54.27349
2022-11-20 23:04:01+00:00,78.0,6.05,70.0,9.54,12.41,47.59359,-54.27349
2022-11-20 23:14:00+00:00,87.0,3.84,92.0,9.52,12.33,47.59359,-54.27349
2022-11-20 23:24:00+00:00,86.0,5.35,82.0,8.35,12.33,47.59359,-54.27349
2022-11-20 23:34:00+00:00,80.0,7.38,79.0,10.38,12.33,47.59359,-54.27349
2022-11-20 23:44:00+00:00,78.0,5.49,80.0,7.62,12.33,47.59359,-54.27349
2022-11-20 23:54:00+00:00,76.0,5.19,65.0,7.95,12.33,47.59359,-54.27349
